FW3585 Weather Reports


Display with metric or nautical units.
time (UTC)temp
F
wind
direction
speed
MPH
gust
MPH
rain 1hr
in
rain 24hr
in
rain mn
in
humidity
%
barometer
mb
20260505003001 70 157 1.0 5.0 0.00 0.00 0.00 52 1012.3
20260505001601 71 170 2.0 4.0 0.00 0.00 0.00 50 1012.3
20260505000108 72 175 0.0 3.0 0.00 0.00 0.00 49 1012.2
20260504234612 73 175 1.0 3.0 0.00 0.00 0.00 47 1012.1
20260504233059 74 183 1.0 6.0 0.00 0.00 0.00 46 1012.1
20260504231559 74 203 3.0 7.0 0.00 0.00 0.00 45 1012.2
20260504230057 75 227 3.0 7.0 0.00 0.00 0.00 45 1012.1
20260504224557 75 248 6.0 12.0 0.00 0.00 0.00 44 1012.2
20260504223056 75 225 7.0 13.0 0.00 0.00 0.00 43 1012.2
20260504221553 74 223 4.0 12.0 0.00 0.00 0.00 45 1012.4
20260504220101 74 217 6.0 11.0 0.00 0.00 0.00 44 1012.6
20260504214556 74 211 6.0 15.0 0.00 0.00 0.00 44 1012.6
20260504213108 74 271 6.0 14.0 0.00 0.00 0.00 43 1012.4
20260504211551 73 186 8.0 15.0 0.00 0.00 0.00 44 1012.3
20260504210050 73 248 5.0 15.0 0.00 0.00 0.00 45 1012.4
20260504204559 73 252 5.0 11.0 0.00 0.00 0.00 44 1012.3
20260504203049 73 167 9.0 19.0 0.00 0.00 0.00 43 1012.4
20260504201547 74 248 8.0 16.0 0.00 0.00 0.00 43 1012.6
20260504200046 74 243 11.0 19.0 0.00 0.00 0.00 41 1012.8
20260504194544 74 197 10.0 17.0 0.00 0.00 0.00 41 1012.9
20260504193058 73 224 7.0 14.0 0.00 0.00 0.00 42 1013.0
20260504191542 73 216 8.0 15.0 0.00 0.00 0.00 41 1013.2
20260504190042 74 250 5.0 13.0 0.00 0.00 0.00 40 1013.4
20260504184542 73 321 3.0 11.0 0.00 0.00 0.00 41 1013.5
20260504183044 72 185 4.0 19.0 0.00 0.00 0.00 41 1013.7
20260504181536 73 210 8.0 16.0 0.00 0.00 0.00 39 1014.1
20260504180034 72 213 7.0 16.0 0.00 0.00 0.00 40 1014.3
20260504174530 72 260 7.0 14.0 0.00 0.00 0.00 40 1014.5
20260504173031 72 240 5.0 12.0 0.00 0.00 0.00 41 1014.5
20260504171526 72 215 3.0 10.0 0.00 0.00 0.00 41 1014.6
20260504100109 49 167 1.0 3.0 0.00 0.00 0.00 64 1016.7
20260504081543 52 202 0.0 2.0 0.00 0.00 0.00 54 1016.8
20260504044533 51 144 3.0 7.0 0.00 0.00 0.00 53 1017.1
20260504043034 51 153 3.0 5.0 0.00 0.00 0.00 52 1017.1
20260504041521 51 141 3.0 7.0 0.00 0.00 0.00 51 1017.0
20260504040022 52 145 3.0 5.0 0.00 0.00 0.00 50 1017.1
20260504034517 51 148 3.0 5.0 0.00 0.00 0.00 50 1017.1
20260504033017 51 150 2.0 3.0 0.00 0.00 0.00 51 1017.2
20260504031519 51 150 2.0 5.0 0.00 0.00 0.00 51 1017.3
20260504030016 52 144 2.0 6.0 0.00 0.00 0.00 51 1017.3
20260504024516 52 157 2.0 5.0 0.00 0.00 0.00 51 1017.2
20260504023016 52 147 2.0 5.0 0.00 0.00 0.00 51 1017.3
20260504021515 52 149 1.0 5.0 0.00 0.00 0.00 52 1017.1
20260504020014 52 151 1.0 5.0 0.00 0.00 0.00 52 1016.9
20260504014514 52 173 2.0 3.0 0.00 0.00 0.00 52 1016.6
20260504013018 53 173 1.0 2.0 0.00 0.00 0.00 51 1016.5
20260504011514 54 173 0.0 1.0 0.00 0.00 0.00 49 1016.3
20260504010013 55 173 1.0 3.0 0.00 0.00 0.00 46 1016.2
20260504004517 57 235 0.0 0.0 0.00 0.00 0.00 44 1016.2